This is the latest recevied weather packets stored in our database for station/object SQ5LTL-2. If no packets are shown the sender has not sent any weather packets the latest 10 day(s).
| Time | Temp. | Humidity | Pressure | Rain* | Wind** | Luminosity | Snow |
|---|---|---|---|---|---|---|---|
| 1777693829 | 2.22° C | 98% | 1026.5 hPa | 0 mm | - | 23 W/m² | - |
| 1777693527 | 2.78° C | 98% | 1026.5 hPa | 0 mm | - | 21 W/m² | - |
| 1777693226 | 1.67° C | 98% | 1026.4 hPa | 0 mm | - | 18 W/m² | - |
| 1777692925 | 1.11° C | 97% | 1026.5 hPa | 0 mm | - | 15 W/m² | - |
| 1777692622 | 1.11° C | 97% | 1026.5 hPa | 0 mm | - | 13 W/m² | - |
| 1777692321 | 0.56° C | 97% | 1026.5 hPa | 0 mm | - | 10 W/m² | - |
| 1777692020 | 0.56° C | 97% | 1026.4 hPa | 0 mm | - | 8 W/m² | - |
| 1777691718 | 1.11° C | 97% | 1026.3 hPa | 0 mm | - | 6 W/m² | - |
| 1777691417 | 1.11° C | 97% | 1026.4 hPa | 0 mm | - | 4 W/m² | - |
| 1777691135 | 1.11° C | 97% | 1026.3 hPa | 0 mm | - | 2 W/m² | - |
| 1777690834 | 1.11° C | 97% | 1026.4 hPa | 0 mm | - | 2 W/m² | - |
| 1777690532 | 1.67° C | 97% | 1026.3 hPa | 0 mm | - | 1 W/m² | - |
| 1777690231 | 1.67° C | 97% | 1026.3 hPa | 0 mm | - | 0 W/m² | - |
| 1777689929 | 1.11° C | 97% | 1026.2 hPa | 0 mm | - | 0 W/m² | - |
| 1777689627 | 1.11° C | 97% | 1026.2 hPa | 0 mm | - | 0 W/m² | - |
| 1777689326 | 1.11° C | 97% | 1026.2 hPa | 0 mm | - | 0 W/m² | - |
| 1777689024 | 1.67° C | 97% | 1026.2 hPa | 0 mm | - | 0 W/m² | - |
| 1777688723 | 1.67° C | 97% | 1026.1 hPa | 0 mm | - | 0 W/m² | - |
| 1777688422 | 2.22° C | 97% | 1026.3 hPa | 0 mm | - | 0 W/m² | - |
| 1777688121 | 2.22° C | 97% | 1026.2 hPa | 0 mm | - | 0 W/m² | - |
| 1777687819 | 1.67° C | 97% | 1026.2 hPa | 0 mm | - | 0 W/m² | - |
| 1777687517 | 1.67° C | 97% | 1026.2 hPa | 0 mm | - | 0 W/m² | - |
| 1777687216 | 1.11° C | 97% | 1026.1 hPa | 0 mm | - | 0 W/m² | - |
| 1777686935 | 1.11° C | 96% | 1026.2 hPa | 0 mm | - | 0 W/m² | - |
| 1777686633 | 1.11° C | 96% | 1026.2 hPa | 0 mm | - | 0 W/m² | - |
* Rain latest hour (hover to see other rain measurements)
** Current wind speed in m/s (hover to see current wind gust speed)